THORAD AGENA D DEB, 5026

Orbit data source: Space-Track

THORAD AGENA D DEB, 5026 is space debris in SSO originally from a launch on Wed, 08 Apr 1970 UTC launched from the Air Force Western Test Range (AFWTR). Debris objects in space refer to the collection of defunct objects orbiting the Earth. Examples of debris include non-operational satellites, rocket bodies, and fragments generated from explosions, collisions, or faulty payload assembly.

Loading next visibility...
Identifier
5026, 1970-025JA
Orbit
SSO
Country
Flag of USUS
Related business
Manufacturer
Unknown
Mission
Spacecraft
Bus & Motor
Unknown
Mass
Unknown
Launch date (UTC)
1970-04-08 (56 years ago)
Launch vehicle
Unknown
Launch site
Air Force Western Test Range (AFWTR)
Object type
Payload
Rocket body
Debris
Shape & HBR
Unknown shape, 0.1 m
Radar Cross Section
Small (<0.1 m²)

Expand to show TLE details & history
Last TLE update: 5 hours ago

TLE from 5 hours ago
0 THORAD AGENA D DEB
1  5026U 70025JA  26123.19315811  .00001172  00000-0  12215-2 0  9994
2  5026 100.1884  28.0323 0032356 195.4555 320.3587 13.77581151778399
Epoch: 2026-05-03T04:38Z
TLE epoch observation values (Epoch: 2026-05-03T04:38:08.860Z)
Latitude
24.03864°
Longitude
-78.03101°
Altitude
957 km
Speed
7.384 km/s
True Right ascension
14h 10m 25s
True Declination
23° 54' 52"
Sunlit
Object was in full shadow at epoch
Visualization orbit readout
Latitude
Unknown
Longitude
Unknown
Altitude
Unknown
Speed
Unknown
Apparent Right ascension
Unknown
Apparent Declination
Unknown
Sunlit
N/A
Visualization observer readout
Local Sidereal Time
17:21:42
Azimuth
Unknown
Elevation
Unknown
Doppler factor
Unknown
Orbital elements
Apogee altitude
993.544 km
Perigee altitude
945.994 km
Semi-major axis
7,347.906 km
Eccentricity
0.00324
Inclination
100.1884°
RAAN
28.0323°
Arg. of periapsis
195.4555°
True anomaly
320.12142°
Mean anomaly
320.3587°
Eccentric anomaly
320.24013°
Mean motion
3.44586 °/min
Orbital period
104.47 mins
BSTAR
0.0012215
Loading maneuver chart data...
Computing Atmospheric mass density...

Documentation

Showing up to 5 results
|